"SCET";"TARGET";"ELECTRON_DENSITY";"ERROR_FLAG";"ELECTRON_DENSITY_ERROR";"FREQ_FCE";"MEASURED_VALUE";"MEASURED_ITEM";"FREQ_PLASMA";"FREQ_UPPER_HYBRID";"FREQ_R_EQUALS_ZERO";"FREQ_L_EQUALS_ZERO";"ORBIT_NUMBER";"SATURN_RADIUS";"SATURN_IAU_LONGITUDE";"SATURN_SLS4_S_LONGITUDE";"SATURN_SLS4_N_LONGITUDE";"SATURN_SLS5_S_LONGITUDE";"SATURN_SLS5_N_LONGITUDE";"SATURN_LOCAL_TIME";"SATURN_KRONOGRAPHIC_LATITUDE";"SATURN_MAGNETIC_LATITUDE";"SATURN_L";"SATURN_L_OFFSET";"SATURN_SOLAR_EQUATORIAL_X";"SATURN_SOLAR_EQUATORIAL_Y";"SATURN_SOLAR_EQUATORIAL_Z";"SATURN_ALTITUDE";"ENCELADUS_ENCOUNTER_NUMBER";"ENCELADUS_RADIUS";"ENCELADUS_COROTATIONAL_X";"ENCELADUS_COROTATIONAL_Y";"ENCELADUS_COROTATIONAL_Z";"ENCELADUS_TRUE_ANOMALY";"ENCELADUS_PERIAPSIS_TIME";"JUPITER_RADIUS";"JUPITER_SYSTEMIII_LONGITUDE";"JUPITER_MAGNETIC_LATITUDE";"JUPITER_MAGNETIC_LOCAL_TIME";"JUPITER_L";"IO_PHASE";"EARTH_RADIUS";"EARTH_MAGNETIC_LATITUDE";"EARTH_LOCAL_TIME";"EARTH_L"
"[UTC]";"[0=Saturn, 1=Enceladus, 2=Jupiter, 3=Earth]";"[cm-3]";"[0=automated, 1=manual]";"[normalized density error]";"[Hz]";"[Hz]";"[0=upper hybrid frequency, 1=plasma frequency cutoff]";"[Hz]";"[Hz]";"[Hz]";"[Hz}";"[0, A, B, C, 3, 4, ... , 292, 293]";"[Rs where 1Rs=60268km]";"[degrees]";"[degrees]";"[degrees]";"[degrees]";"[degrees]";"[hours]";"[degrees]";"[degrees where offset=2293km north]";"[Rs where 1Rs=60268km]";"[Rs where 1Rs=60268km and offset=2293km north]";"[Rs where 1Rs=60268km]";"[Rs where 1Rs=60268km]";"[Rs where 1Rs=60268km]";"[km where ellipsoid a,b=60268km and c=54364km]";"[E0, E1, E2, ... , E21, E22]";"[Renc where 1Renc=252.1km]";"[Renc where 1Renc=252.1km]";"[Renc where 1Renc=252.1km]";"[Renc where 1Renc=252.1km]";"[degrees]";"[UTC]";"[Rj where 1Rj=71492km]";"[degrees]";"[degrees using JRM09 model]";"[hours using JRM09 model]";"[Rj where 1Rj=71492km]";"[degrees]";"[Re where 1Re=6378.1366km]";"[degrees]";"[hours]";"[Re where 1Re=6378.1366km]"
2008-02-20T17:21:26.630Z;0;2.6640e+00;0;     0.217; 12393.276;  19194.920; 0;  14657.819;  19194.920;  22110.469;   9717.191; 59;   3.595;  48.953;  17.741; 359.840;   5.399; 354.020;  22.883;   6.012;   5.409;   3.635;   3.588;  -3.424;   1.030;   0.376;;;;;;;;;;;;;;;;;;
2008-02-20T17:21:38.880Z;0;2.7310e+00;0;     0.252; 12393.276;  19334.975; 0;  14840.753;  19334.975;  22279.121;   9885.846; 59;   3.594;  49.030;  17.816; 359.918;   5.475; 354.099;  22.886;   5.972;   5.368;   3.633;   3.587;  -3.424;   1.028;   0.374;;;;;;;;;;;;;;;;;;
2008-02-20T17:21:51.130Z;0;2.9630e+00;0;     0.261; 12393.276;  19811.959; 0;  15457.051;  19811.959;  22849.527;  10456.252; 59;   3.593;  49.107;  17.892; 359.996;   5.551; 354.177;  22.888;   5.932;   5.328;   3.632;   3.586;  -3.424;   1.025;   0.371;;;;;;;;;;;;;;;;;;
2008-02-20T17:22:03.380Z;0;3.2620e+00;0;     0.213; 12434.576;  20437.023; 0;  16218.916;  20437.023;  23587.029;  11152.453; 59;   3.592;  49.184;  17.967;   0.073;   5.627; 354.256;  22.891;   5.892;   5.288;   3.630;   3.585;  -3.424;   1.023;   0.369;;;;;;;;;;;;;;;;;;
2008-02-20T17:22:15.630Z;0;3.0890e+00;0;     0.211; 12434.576;  20092.793; 0;  15782.954;  20092.793;  23180.670;  10746.094; 59;   3.591;  49.261;  18.042;   0.151;   5.703; 354.334;  22.894;   5.852;   5.248;   3.629;   3.584;  -3.423;   1.020;   0.366;;;;;;;;;;;;;;;;;;
2008-02-20T17:22:28.004Z;0;3.2860e+00;0;     0.199; 12434.576;  20485.004; 0;  16279.333;  20485.004;  23643.457;  11208.881; 59;   3.590;  49.339;  18.118;   0.230;   5.779; 354.413;  22.896;   5.811;   5.207;   3.627;   3.583;  -3.423;   1.018;   0.363;;;;;;;;;;;;;;;;;;
2008-02-20T17:22:40.254Z;0;3.2340e+00;0;     0.205; 12434.576;  20381.141; 0;  16148.442;  20381.141;  23521.244;  11086.667; 59;   3.589;  49.416;  18.193;   0.307;   5.855; 354.492;  22.899;   5.771;   5.167;   3.626;   3.582;  -3.423;   1.015;   0.361;;;;;;;;;;;;;;;;;;
2008-02-20T17:22:52.629Z;0;3.3450e+00;0;     0.216; 12434.576;  20599.549; 0;  16423.238;  20599.549;  23777.965;  11343.390; 59;   3.588;  49.494;  18.269;   0.386;   5.932; 354.571;  22.901;   5.731;   5.126;   3.624;   3.581;  -3.423;   1.013;   0.358;;;;;;;;;;;;;;;;;;
2008-02-20T17:23:05.004Z;0;3.6660e+00;0;     0.199; 12471.256;  21241.455; 0;  17194.975;  21241.455;  24526.342;  12055.087; 59;   3.587;  49.572;  18.345;   0.464;   6.009; 354.650;  22.904;   5.690;   5.085;   3.623;   3.580;  -3.423;   1.010;   0.355;;;;;;;;;;;;;;;;;;
2008-02-20T17:23:17.379Z;0;3.5590e+00;0;     0.173; 12471.256;  21036.855; 0;  16941.578;  21036.855;  24288.332;  11817.075; 59;   3.586;  49.649;  18.421;   0.543;   6.086; 354.729;  22.906;   5.649;   5.044;   3.621;   3.579;  -3.423;   1.008;   0.353;;;;;;;;;;;;;;;;;;
2008-02-20T17:23:17.379Z;0;3.5590e+00;0;     0.173; 12471.256;  21036.855; 0;  16941.578;  21036.855;  24288.332;  11817.075; 59;   3.586;  49.649;  18.421;   0.543;   6.086; 354.729;  22.906;   5.649;   5.044;   3.621;   3.579;  -3.423;   1.008;   0.353;;;;;;;;;;;;;;;;;;
2008-02-20T17:23:29.754Z;0;3.4900e+00;0;     0.181; 12471.256;  20902.920; 0;  16774.977;  20902.920;  24132.076;  11660.821; 59;   3.585;  49.727;  18.497;   0.621;   6.162; 354.809;  22.909;   5.609;   5.003;   3.619;   3.578;  -3.423;   1.005;   0.350;;;;;;;;;;;;;;;;;;
2008-02-20T17:23:29.754Z;0;3.4900e+00;0;     0.181; 12471.256;  20902.920; 0;  16774.977;  20902.920;  24132.076;  11660.821; 59;   3.585;  49.727;  18.497;   0.621;   6.162; 354.809;  22.909;   5.609;   5.003;   3.619;   3.578;  -3.423;   1.005;   0.350;;;;;;;;;;;;;;;;;;
2008-02-20T17:23:42.004Z;0;3.6250e+00;0;     0.166; 12471.256;  21162.232; 0;  17097.014;  21162.232;  24434.279;  11963.023; 59;   3.584;  49.804;  18.573;   0.699;   6.238; 354.887;  22.911;   5.569;   4.963;   3.618;   3.577;  -3.423;   1.003;   0.348;;;;;;;;;;;;;;;;;;
2008-02-20T17:24:06.504Z;0;3.7370e+00;0;     0.195; 12511.408;  21398.178; 0;  17359.340;  21398.178;  24707.818;  12196.410; 59;   3.582;  49.958;  18.723;   0.854;   6.391; 355.044;  22.916;   5.488;   4.882;   3.615;   3.575;  -3.423;   0.998;   0.342;;;;;;;;;;;;;;;;;;
2008-02-20T17:24:18.754Z;0;3.7980e+00;0;     0.232; 12511.408;  21512.152; 0;  17499.639;  21512.152;  24839.869;  12328.461; 59;   3.581;  50.035;  18.798;   0.931;   6.467; 355.122;  22.919;   5.448;   4.841;   3.613;   3.574;  -3.423;   0.995;   0.340;;;;;;;;;;;;;;;;;;
2008-02-20T17:24:31.004Z;0;4.1090e+00;0;     0.221; 12511.408;  22088.016; 0;  18202.887;  22088.016;  25503.533;  12992.125; 59;   3.580;  50.111;  18.873;   1.009;   6.543; 355.200;  22.922;   5.407;   4.800;   3.612;   3.573;  -3.423;   0.993;   0.337;;;;;;;;;;;;;;;;;;
2008-02-20T17:24:43.254Z;0;4.3070e+00;0;     0.234; 12511.408;  22446.832; 0;  18636.656;  22446.832;  25914.258;  13402.851; 59;   3.579;  50.188;  18.948;   1.086;   6.619; 355.279;  22.924;   5.367;   4.760;   3.610;   3.572;  -3.423;   0.990;   0.335;;;;;;;;;;;;;;;;;;
2008-02-20T17:24:55.503Z;0;4.2190e+00;0;     0.195; 12511.408;  22287.156; 0;  18444.023;  22287.156;  25731.736;  13220.328; 59;   3.578;  50.265;  19.023;   1.164;   6.695; 355.357;  22.927;   5.326;   4.719;   3.609;   3.571;  -3.423;   0.988;   0.332;;;;;;;;;;;;;;;;;;
2008-02-20T17:25:07.753Z;0;4.2560e+00;0;     0.185; 12549.684;  22376.857; 0;  18526.445;  22376.857;  25835.078;  13285.394; 59;   3.577;  50.342;  19.098;   1.241;   6.771; 355.435;  22.929;   5.286;   4.679;   3.607;   3.570;  -3.423;   0.985;   0.329;;;;;;;;;;;;;;;;;;
2008-02-20T17:25:20.003Z;0;4.3280e+00;0;     0.220; 12549.684;  22506.184; 0;  18682.445;  22506.184;  25982.896;  13433.212; 59;   3.576;  50.419;  19.173;   1.319;   6.848; 355.513;  22.932;   5.245;   4.638;   3.606;   3.569;  -3.423;   0.983;   0.327;;;;;;;;;;;;;;;;;;
2008-02-20T17:25:32.253Z;0;4.8760e+00;0;     0.193; 12549.684;  23467.398; 0;  19829.883;  23467.398;  27073.828;  14524.145; 59;   3.575;  50.495;  19.248;   1.396;   6.924; 355.592;  22.934;   5.205;   4.597;   3.605;   3.568;  -3.423;   0.980;   0.324;;;;;;;;;;;;;;;;;;
2008-02-20T17:25:44.503Z;0;4.6620e+00;0;     0.241; 12549.684;  23095.693; 0;  19388.566;  23095.693;  26653.510;  14103.826; 59;   3.574;  50.572;  19.323;   1.474;   7.000; 355.670;  22.937;   5.164;   4.556;   3.603;   3.567;  -3.422;   0.978;   0.322;;;;;;;;;;;;;;;;;;
2008-02-20T17:25:56.753Z;0;4.8190e+00;0;     0.189; 12549.684;  23368.643; 0;  19712.912;  23368.643;  26962.340;  14412.655; 59;   3.573;  50.649;  19.398;   1.551;   7.077; 355.748;  22.939;   5.124;   4.516;   3.602;   3.566;  -3.422;   0.975;   0.319;;;;;;;;;;;;;;;;;;
2008-02-20T17:26:09.003Z;0;4.7870e+00;0;     0.194; 12586.672;  23333.049; 0;  19647.057;  23333.049;  26923.725;  14337.053; 59;   3.572;  50.726;  19.473;   1.628;   7.153; 355.826;  22.942;   5.083;   4.475;   3.600;   3.565;  -3.422;   0.973;   0.316;;;;;;;;;;;;;;;;;;
2008-02-20T17:26:21.253Z;0;5.3130e+00;0;     0.216; 12586.672;  24225.332; 0;  20698.850;  24225.332;  27927.764;  15341.093; 59;   3.571;  50.802;  19.548;   1.706;   7.229; 355.904;  22.944;   5.043;   4.434;   3.599;   3.564;  -3.422;   0.970;   0.314;;;;;;;;;;;;;;;;;;
2008-02-20T17:26:45.878Z;0;5.1250e+00;0;     0.341; 12586.672;  23909.846; 0;  20328.709;  23909.846;  27573.902;  14987.230; 59;   3.569;  50.956;  19.699;   1.861;   7.383; 356.062;  22.950;   4.961;   4.352;   3.596;   3.562;  -3.422;   0.965;   0.308;;;;;;;;;;;;;;;;;;
2008-02-20T17:26:58.128Z;0;5.4130e+00;0;     0.187; 12586.672;  24391.217; 0;  20892.754;  24391.217;  28113.355;  15526.684; 59;   3.568;  51.033;  19.774;   1.939;   7.459; 356.140;  22.952;   4.920;   4.311;   3.594;   3.561;  -3.422;   0.963;   0.306;;;;;;;;;;;;;;;;;;
2008-02-20T17:27:10.377Z;0;5.5290e+00;0;     0.189; 12627.664;  24603.225; 0;  21115.416;  24603.225;  28353.008;  15725.343; 59;   3.567;  51.110;  19.849;   2.016;   7.536; 356.218;  22.955;   4.880;   4.270;   3.593;   3.560;  -3.422;   0.960;   0.303;;;;;;;;;;;;;;;;;;
2008-02-20T17:27:22.627Z;0;5.5710e+00;0;     0.182; 12627.664;  24671.697; 0;  21195.158;  24671.697;  28429.420;  15801.756; 59;   3.566;  51.186;  19.923;   2.093;   7.612; 356.296;  22.957;   4.839;   4.229;   3.592;   3.559;  -3.422;   0.958;   0.301;;;;;;;;;;;;;;;;;;
2008-02-20T17:27:34.877Z;0;5.8180e+00;0;     0.197; 12627.664;  25072.799; 0;  21660.732;  25072.799;  28876.008;  16248.345; 59;   3.565;  51.263;  19.998;   2.171;   7.689; 356.374;  22.960;   4.798;   4.188;   3.590;   3.558;  -3.422;   0.955;   0.298;;;;;;;;;;;;;;;;;;
2008-02-20T17:27:47.127Z;0;5.9200e+00;0;     0.174; 12627.664;  25235.852; 0;  21849.264;  25235.852;  29057.068;  16429.404; 59;   3.564;  51.340;  20.073;   2.248;   7.766; 356.452;  22.962;   4.757;   4.147;   3.589;   3.557;  -3.422;   0.953;   0.295;;;;;;;;;;;;;;;;;;
2008-02-20T17:27:59.377Z;0;5.6370e+00;0;     0.178; 12627.664;  24779.641; 0;  21320.711;  24779.641;  28549.775;  15922.111; 59;   3.563;  51.416;  20.148;   2.325;   7.842; 356.530;  22.965;   4.716;   4.106;   3.587;   3.557;  -3.422;   0.950;   0.293;;;;;;;;;;;;;;;;;;
2008-02-20T17:28:11.627Z;0;5.7800e+00;0;     0.200; 12666.641;  25030.400; 0;  21588.820;  25030.400;  28831.945;  16165.305; 59;   3.562;  51.493;  20.223;   2.402;   7.919; 356.608;  22.967;   4.676;   4.065;   3.586;   3.556;  -3.421;   0.948;   0.290;;;;;;;;;;;;;;;;;;
2008-02-20T17:28:23.877Z;0;6.1870e+00;0;     0.163; 12666.641;  25678.768; 0;  22337.309;  25678.768;  29551.121;  16884.480; 59;   3.561;  51.569;  20.298;   2.480;   7.995; 356.686;  22.970;   4.635;   4.024;   3.585;   3.555;  -3.421;   0.945;   0.288;;;;;;;;;;;;;;;;;;
2008-02-20T17:28:36.127Z;0;6.0390e+00;0;     0.318; 12666.641;  25444.383; 0;  22067.461;  25444.383;  29291.625;  16624.984; 59;   3.560;  51.646;  20.372;   2.557;   8.072; 356.764;  22.973;   4.594;   3.983;   3.583;   3.554;  -3.421;   0.943;   0.285;;;;;;;;;;;;;;;;;;
2008-02-20T17:28:48.377Z;0;6.4960e+00;0;     0.190; 12666.641;  26159.227; 0;  22888.018;  26159.227;  30081.422;  17414.781; 59;   3.559;  51.722;  20.447;   2.634;   8.149; 356.842;  22.975;   4.553;   3.942;   3.582;   3.553;  -3.421;   0.940;   0.282;;;;;;;;;;;;;;;;;;
2008-02-20T17:29:00.627Z;0;6.8940e+00;0;     0.169; 12709.200;  26784.723; 0;  23577.480;  26784.723;  30773.416;  18064.215; 59;   3.558;  51.799;  20.522;   2.711;   8.225; 356.920;  22.978;   4.512;   3.901;   3.580;   3.552;  -3.421;   0.938;   0.280;;;;;;;;;;;;;;;;;;
2008-02-20T17:29:25.127Z;0;7.0270e+00;0;     0.220; 12709.200;  26984.867; 0;  23804.607;  26984.867;  30992.787;  18283.586; 59;   3.556;  51.952;  20.671;   2.865;   8.379; 357.076;  22.983;   4.430;   3.819;   3.578;   3.550;  -3.421;   0.933;   0.275;;;;;;;;;;;;;;;;;;
2008-02-20T17:29:37.376Z;0;7.4500e+00;0;     0.217; 12709.200;  27609.549; 0;  24510.477;  27609.549;  31675.428;  18966.229; 59;   3.555;  52.028;  20.746;   2.943;   8.456; 357.154;  22.985;   4.389;   3.778;   3.576;   3.549;  -3.421;   0.930;   0.272;;;;;;;;;;;;;;;;;;
2008-02-20T17:29:49.626Z;0;7.0660e+00;0;     0.172; 12709.200;  27042.902; 0;  23870.375;  27042.902;  31056.336;  18347.137; 59;   3.554;  52.105;  20.821;   3.020;   8.533; 357.232;  22.988;   4.348;   3.736;   3.575;   3.548;  -3.421;   0.928;   0.269;;;;;;;;;;;;;;;;;;
2008-02-20T17:30:01.876Z;0;6.8980e+00;0;     0.197; 12748.232;  26810.236; 0;  23585.406;  26810.236;  30805.668;  18057.436; 59;   3.553;  52.181;  20.895;   3.097;   8.609; 357.310;  22.991;   4.307;   3.695;   3.574;   3.547;  -3.420;   0.925;   0.267;;;;;;;;;;;;;;;;;;
2008-02-20T17:30:14.126Z;0;7.0650e+00;0;     0.158; 12748.232;  27060.441; 0;  23869.438;  27060.441;  31079.975;  18331.742; 59;   3.552;  52.257;  20.970;   3.174;   8.684; 357.386;  22.993;   4.266;   3.654;   3.572;   3.546;  -3.420;   0.923;   0.264;;;;;;;;;;;;;;;;;;
2008-02-20T17:30:26.376Z;0;7.2060e+00;0;     0.182; 12748.232;  27268.689; 0;  24105.270;  27268.689;  31307.896;  18559.664; 59;   3.552;  52.334;  21.045;   3.251;   8.759; 357.463;  22.996;   4.225;   3.613;   3.571;   3.545;  -3.420;   0.920;   0.262;;;;;;;;;;;;;;;;;;
2008-02-20T17:30:38.626Z;0;7.1930e+00;0;     0.246; 12748.232;  27249.766; 0;  24083.859;  27249.766;  31287.197;  18538.967; 59;   3.551;  52.410;  21.119;   3.328;   8.833; 357.540;  22.998;   4.184;   3.571;   3.570;   3.544;  -3.420;   0.918;   0.259;;;;;;;;;;;;;;;;;;
2008-02-20T17:30:51.001Z;0;8.2450e+00;0;     0.243; 12748.232;  28764.414; 0;  25785.152;  28764.414;  32935.430;  20187.199; 59;   3.550;  52.487;  21.195;   3.406;   8.909; 357.617;  23.001;   4.142;   3.529;   3.568;   3.543;  -3.420;   0.915;   0.256;;;;;;;;;;;;;;;;;;
2008-02-20T17:31:03.251Z;0;7.1910e+00;0;     0.152; 12788.132;  27266.006; 0;  24081.088;  27266.006;  31309.580;  18521.447; 59;   3.549;  52.563;  21.269;   3.483;   8.983; 357.694;  23.003;   4.101;   3.488;   3.567;   3.542;  -3.420;   0.913;   0.254;;;;;;;;;;;;;;;;;;
2008-02-20T17:31:15.501Z;0;7.3910e+00;0;     0.146; 12788.132;  27560.355; 0;  24413.867;  27560.355;  31631.359;  18843.227; 59;   3.548;  52.640;  21.344;   3.560;   9.058; 357.770;  23.006;   4.060;   3.447;   3.566;   3.542;  -3.420;   0.910;   0.251;;;;;;;;;;;;;;;;;;
2008-02-20T17:31:27.876Z;0;7.4830e+00;0;     0.163; 12788.132;  27693.818; 0;  24564.432;  27693.818;  31777.039;  18988.908; 59;   3.547;  52.717;  21.419;   3.637;   9.133; 357.847;  23.009;   4.018;   3.405;   3.564;   3.541;  -3.420;   0.908;   0.248;;;;;;;;;;;;;;;;;;
2008-02-20T17:31:40.126Z;0;7.5720e+00;0;     0.164; 12788.132;  27823.693; 0;  24710.758;  27823.693;  31918.676;  19130.543; 59;   3.546;  52.793;  21.493;   3.714;   9.207; 357.924;  23.011;   3.977;   3.363;   3.563;   3.540;  -3.419;   0.905;   0.246;;;;;;;;;;;;;;;;;;
2008-02-20T17:31:52.376Z;0;7.6100e+00;0;     0.172; 12788.132;  27878.654; 0;  24772.627;  27878.654;  31978.576;  19190.443; 59;   3.545;  52.869;  21.568;   3.791;   9.281; 358.000;  23.014;   3.936;   3.322;   3.562;   3.539;  -3.419;   0.903;   0.243;;;;;;;;;;;;;;;;;;
2008-02-20T17:32:04.625Z;0;8.0090e+00;0;     0.167; 12829.796;  28469.104; 0;  25414.291;  28469.104;  32626.291;  19796.494; 59;   3.544;  52.946;  21.642;   3.868;   9.356; 358.076;  23.016;   3.895;   3.281;   3.560;   3.538;  -3.419;   0.900;   0.241;;;;;;;;;;;;;;;;;;
2008-02-20T17:32:17.000Z;0;7.9830e+00;0;     0.156; 12829.796;  28431.949; 0;  25372.664;  28431.949;  32585.932;  19756.135; 59;   3.543;  53.023;  21.718;   3.946;   9.431; 358.153;  23.019;   3.853;   3.239;   3.559;   3.537;  -3.419;   0.898;   0.238;;;;;;;;;;;;;;;;;;
2008-02-20T17:32:29.250Z;0;8.2250e+00;0;     0.198; 12829.796;  28772.775; 0;  25754.008;  28772.775;  32955.809;  20126.012; 59;   3.542;  53.099;  21.792;   4.023;   9.505; 358.230;  23.022;   3.811;   3.197;   3.558;   3.536;  -3.419;   0.895;   0.235;;;;;;;;;;;;;;;;;;
2008-02-20T17:32:41.500Z;0;8.4660e+00;0;     0.265; 12829.796;  29107.873; 0;  26127.852;  29107.873;  33318.719;  20488.922; 59;   3.541;  53.175;  21.867;   4.100;   9.579; 358.306;  23.024;   3.770;   3.156;   3.556;   3.535;  -3.419;   0.893;   0.233;;;;;;;;;;;;;;;;;;
2008-02-20T17:32:53.750Z;0;8.5210e+00;0;     0.152; 12829.796;  29184.898; 0;  26213.635;  29184.898;  33402.035;  20572.238; 59;   3.540;  53.251;  21.941;   4.177;   9.653; 358.382;  23.027;   3.729;   3.114;   3.555;   3.534;  -3.419;   0.890;   0.230;;;;;;;;;;;;;;;;;;
2008-02-20T17:33:06.000Z;0;8.5000e+00;0;     0.140; 12870.172;  29173.725; 0;  26181.385;  29173.725;  33395.711;  20525.537; 59;   3.539;  53.327;  22.015;   4.253;   9.727; 358.458;  23.029;   3.687;   3.072;   3.554;   3.533;  -3.418;   0.888;   0.227;;;;;;;;;;;;;;;;;;
2008-02-20T17:33:18.375Z;0;8.7210e+00;0;     0.165; 12870.172;  29477.047; 0;  26518.955;  29477.047;  33723.641;  20853.471; 59;   3.538;  53.404;  22.091;   4.331;   9.801; 358.534;  23.032;   3.646;   3.030;   3.553;   3.532;  -3.418;   0.885;   0.225;;;;;;;;;;;;;;;;;;
2008-02-20T17:33:42.875Z;0;9.0720e+00;0;     0.136; 12870.172;  29953.189; 0;  27047.223;  29953.189;  34237.289;  21367.119; 59;   3.536;  53.556;  22.239;   4.485;   9.949; 358.686;  23.037;   3.563;   2.947;   3.550;   3.531;  -3.418;   0.880;   0.220;;;;;;;;;;;;;;;;;;
2008-02-20T17:33:55.125Z;0;9.2980e+00;0;     0.132; 12870.172;  30256.783; 0;  27383.053;  30256.783;  34564.109;  21693.938; 59;   3.535;  53.633;  22.314;   4.561;  10.023; 358.762;  23.040;   3.521;   2.905;   3.549;   3.530;  -3.418;   0.878;   0.217;;;;;;;;;;;;;;;;;;
2008-02-20T17:34:07.375Z;0;9.2970e+00;0;     0.168; 12912.592;  30273.414; 0;  27381.465;  30273.414;  34588.633;  21676.039; 59;   3.534;  53.709;  22.388;   4.638;  10.096; 358.837;  23.042;   3.480;   2.864;   3.548;   3.529;  -3.418;   0.875;   0.214;;;;;;;;;;;;;;;;;;
2008-02-20T17:34:19.624Z;0;9.3430e+00;0;     0.128; 12912.592;  30333.764; 0;  27448.172;  30333.764;  34653.562;  21740.973; 59;   3.534;  53.785;  22.462;   4.715;  10.170; 358.913;  23.045;   3.438;   2.822;   3.546;   3.528;  -3.418;   0.873;   0.212;;;;;;;;;;;;;;;;;;
2008-02-20T17:34:31.874Z;0;9.4340e+00;0;     0.139; 12912.592;  30454.260; 0;  27581.277;  30454.260;  34783.148;  21870.559; 59;   3.533;  53.861;  22.537;   4.792;  10.243; 358.989;  23.047;   3.396;   2.780;   3.545;   3.527;  -3.417;   0.870;   0.209;;;;;;;;;;;;;;;;;;
2008-02-20T17:34:44.124Z;0;9.5100e+00;0;     0.151; 12912.592;  30555.838; 0;  27693.396;  30555.838;  34892.328;  21979.736; 59;   3.532;  53.937;  22.611;   4.868;  10.317; 359.064;  23.050;   3.355;   2.738;   3.544;   3.526;  -3.417;   0.868;   0.207;;;;;;;;;;;;;;;;;;
2008-02-20T17:34:56.499Z;0;9.8100e+00;0;     0.140; 12912.592;  30948.818; 0;  28126.398;  30948.818;  35314.191;  22401.598; 59;   3.531;  54.013;  22.686;   4.946;  10.391; 359.140;  23.053;   3.313;   2.696;   3.543;   3.525;  -3.417;   0.865;   0.204;;;;;;;;;;;;;;;;;;
2008-02-20T17:35:08.749Z;0;1.0190e+01;0;     0.183; 12952.716;  31461.078; 0;  28671.006;  31461.078;  35869.723;  22917.006; 59;   3.530;  54.089;  22.760;   5.022;  10.464; 359.216;  23.055;   3.271;   2.654;   3.541;   3.524;  -3.417;   0.863;   0.201;;;;;;;;;;;;;;;;;;
2008-02-20T17:35:20.999Z;0;1.0380e+01;0;     0.156; 12952.716;  31704.877; 0;  28938.320;  31704.877;  36130.523;  23177.809; 59;   3.529;  54.165;  22.834;   5.099;  10.538; 359.291;  23.058;   3.230;   2.613;   3.540;   3.523;  -3.417;   0.860;   0.199;;;;;;;;;;;;;;;;;;
2008-02-20T17:35:33.374Z;0;1.0900e+01;0;     0.150; 12952.716;  32351.285; 0;  29645.115;  32351.285;  36820.648;  23867.934; 59;   3.528;  54.242;  22.909;   5.176;  10.612; 359.367;  23.061;   3.187;   2.570;   3.539;   3.522;  -3.417;   0.858;   0.196;;;;;;;;;;;;;;;;;;
2008-02-20T17:35:45.624Z;0;1.1020e+01;0;     0.165; 12952.716;  32507.578; 0;  29815.596;  32507.578;  36987.227;  24034.510; 59;   3.527;  54.318;  22.983;   5.253;  10.685; 359.442;  23.063;   3.146;   2.528;   3.538;   3.522;  -3.416;   0.855;   0.193;;;;;;;;;;;;;;;;;;
2008-02-20T17:35:57.874Z;0;1.1440e+01;0;     0.146; 12952.716;  33019.031; 0;  30372.414;  33019.031;  37531.578;  24578.863; 59;   3.526;  54.394;  23.058;   5.330;  10.758; 359.518;  23.066;   3.104;   2.486;   3.536;   3.521;  -3.416;   0.852;   0.191;;;;;;;;;;;;;;;;;;
2008-02-20T17:36:22.374Z;0;1.1810e+01;0;     0.167; 12995.024;  33488.461; 0;  30864.322;  33488.461;  38038.344;  25043.318; 59;   3.524;  54.546;  23.206;   5.483;  10.904; 359.668;  23.071;   3.020;   2.403;   3.534;   3.519;  -3.416;   0.847;   0.186;;;;;;;;;;;;;;;;;;
2008-02-20T17:36:34.624Z;0;1.1810e+01;0;     0.134; 12995.024;  33482.000; 0;  30857.311;  33482.000;  38031.484;  25036.459; 59;   3.523;  54.622;  23.280;   5.559;  10.977; 359.743;  23.074;   2.979;   2.361;   3.533;   3.518;  -3.416;   0.845;   0.183;;;;;;;;;;;;;;;;;;
2008-02-20T17:36:46.873Z;0;1.1660e+01;0;     0.140; 12995.024;  33305.172; 0;  30665.352;  33305.172;  37843.668;  24848.645; 59;   3.522;  54.697;  23.354;   5.636;  11.050; 359.818;  23.076;   2.937;   2.319;   3.532;   3.517;  -3.415;   0.842;   0.180;;;;;;;;;;;;;;;;;;
2008-02-20T17:36:59.123Z;0;1.1610e+01;0;     0.135; 12995.024;  33242.883; 0;  30597.689;  33242.883;  37777.477;  24782.453; 59;   3.522;  54.773;  23.428;   5.712;  11.123; 359.892;  23.079;   2.895;   2.277;   3.531;   3.516;  -3.415;   0.840;   0.178;;;;;;;;;;;;;;;;;;
2008-02-20T17:37:11.373Z;0;1.1850e+01;0;     0.127; 13036.688;  33553.605; 0;  30917.457;  33553.605;  38115.465;  25078.775; 59;   3.521;  54.849;  23.502;   5.789;  11.195; 359.967;  23.081;   2.853;   2.234;   3.529;   3.515;  -3.415;   0.837;   0.175;;;;;;;;;;;;;;;;;;
2008-02-20T17:37:23.623Z;0;1.2080e+01;0;     0.137; 13036.688;  33819.211; 0;  31205.510;  33819.211;  38397.375;  25360.688; 59;   3.520;  54.925;  23.576;   5.865;  11.268;   0.043;  23.084;   2.811;   2.192;   3.528;   3.514;  -3.415;   0.835;   0.172;;;;;;;;;;;;;;;;;;
2008-02-20T17:37:35.873Z;0;1.1900e+01;0;     0.134; 13036.688;  33607.262; 0;  30975.682;  33607.262;  38172.438;  25135.748; 59;   3.519;  55.001;  23.650;   5.942;  11.341;   0.118;  23.087;   2.769;   2.150;   3.527;   3.514;  -3.415;   0.832;   0.170;;;;;;;;;;;;;;;;;;
2008-02-20T17:37:48.123Z;0;1.2010e+01;0;     0.159; 13036.688;  33739.637; 0;  31119.252;  33739.637;  38312.945;  25276.258; 59;   3.518;  55.076;  23.724;   6.018;  11.413;   0.192;  23.089;   2.727;   2.108;   3.526;   3.513;  -3.415;   0.830;   0.167;;;;;;;;;;;;;;;;;;
2008-02-20T17:38:00.373Z;0;1.2760e+01;0;     0.198; 13080.145;  34643.113; 0;  32078.889;  34643.113;  39278.852;  26198.707; 59;   3.517;  55.152;  23.798;   6.095;  11.486;   0.267;  23.092;   2.685;   2.066;   3.525;   3.512;  -3.414;   0.827;   0.165;;;;;;;;;;;;;;;;;;
2008-02-20T17:38:12.623Z;0;1.2550e+01;0;     0.216; 13080.145;  34399.094; 0;  31815.209;  34399.094;  39020.527;  25940.385; 59;   3.516;  55.228;  23.872;   6.171;  11.558;   0.341;  23.094;   2.643;   2.024;   3.524;   3.511;  -3.414;   0.825;   0.162;;;;;;;;;;;;;;;;;;